EW7736 Weather Reports


Display with metric or nautical units.
time (UTC)temp
F
wind
direction
speed
MPH
gust
MPH
rain 1hr
in
rain 24hr
in
rain mn
in
humidity
%
barometer
mb
20260502211533 45 131 1.0 5.0 0.00 0.02 0.01 63 1014.3
20260502205418 45 127 1.0 7.0 0.00 0.02 0.01 62 1014.2
20260502203248 46 125 2.0 7.0 0.00 0.02 0.01 61 1014.2
20260502202232 45 120 1.0 5.0 0.00 0.02 0.01 60 1014.2
20260502201235 44 116 1.0 6.0 0.00 0.02 0.01 53 1014.3
20260502200254 42 124 2.0 15.0 0.00 0.02 0.01 54 1014.4
20260502195310 42 130 4.0 15.0 0.00 0.02 0.01 60 1014.5
20260502194329 45 113 3.0 8.0 0.00 0.02 0.01 62 1014.4
20260502193326 46 192 2.0 8.0 0.00 0.02 0.01 62 1014.4
20260502191221 46 131 1.0 4.0 0.00 0.02 0.01 62 1014.5
20260502185100 45 117 2.0 7.0 0.00 0.02 0.01 62 1014.7
20260502184052 46 117 2.0 7.0 0.00 0.02 0.01 61 1014.8
20260502183025 46 124 1.0 6.0 0.00 0.02 0.01 61 1014.7
20260502182016 46 127 2.0 8.0 0.00 0.02 0.01 60 1014.7
20260502181033 46 117 3.0 9.0 0.00 0.02 0.01 61 1014.7
20260502163551 47 101 2.0 9.0 0.00 0.02 0.01 59 1014.6
20260502162547 46 141 1.0 6.0 0.00 0.02 0.01 60 1014.6
20260502161528 45 115 2.0 8.0 0.00 0.02 0.01 60 1014.7
20260502160512 45 107 3.0 11.0 0.00 0.02 0.01 60 1014.8
20260502151343 46 100 2.0 7.0 0.00 0.02 0.01 59 1014.6
20260502150317 45 112 1.0 6.0 0.00 0.02 0.01 50 1014.6
20260502140122 42 86 3.0 7.0 0.00 0.02 0.01 1 1014.7
20260502121700 37 112 0.0 0.0 0.00 0.02 0.01 1 1015.1
20260502120720 37 112 0.0 0.0 0.00 0.02 0.01 1 1015.2
20260502115709 37 112 0.0 0.0 0.00 0.02 0.01 1 1015.3
20260502114723 36 112 0.0 0.0 0.00 0.01 0.00 1 1015.3
20260502113709 36 112 0.0 0.0 0.00 0.01 0.00 1 1015.3
20260502111604 36 112 0.0 0.0 0.00 0.01 0.00 1 1015.3
20260502110620 36 112 0.0 0.0 0.00 0.01 0.00 1 1015.2
20260502105643 35 112 0.0 0.0 0.00 0.01 0.00 1 1015.2
20260502104615 35 112 0.0 0.0 0.00 0.01 0.00 1 1015.2
20260502103606 35 112 0.0 0.0 0.00 0.01 0.00 1 1015.0
20260502102538 35 112 0.0 0.0 0.00 0.01 0.00 1 1015.2
20260502100449 35 112 0.0 0.0 0.00 0.01 0.00 1 1015.1
20260502091424 34 112 0.0 0.0 0.00 0.01 0.00 1 1015.0
20260502090433 35 112 0.0 0.0 0.00 0.01 0.00 1 1015.0
20260502071344 36 106 0.0 0.0 0.00 0.01 0.00 1 1014.7
20260502070409 36 113 0.0 0.0 0.00 0.01 0.00 1 1014.8
20260502064308 36 113 0.0 0.0 0.00 0.01 0.00 1 1015.0
20260502062206 37 96 0.0 1.0 0.00 0.01 0.00 1 1015.0
20260502061146 37 108 0.0 1.0 0.00 0.01 0.00 1 1015.1
20260502060134 37 101 0.0 2.0 0.00 0.01 0.00 1 1015.2
20260502052847 38 98 1.0 3.0 0.00 0.01 0.00 1 1015.5
20260502051842 38 96 0.0 3.0 0.00 0.01 0.00 1 1015.5
20260502050841 38 101 0.0 2.0 0.00 0.01 0.00 1 1015.5
20260502045812 38 101 0.0 2.0 0.00 0.01 0.00 1 1015.4
20260502044809 38 100 0.0 1.0 0.00 0.01 0.00 1 1015.4
20260502043830 38 84 0.0 0.0 0.00 0.01 0.00 1 1015.4
20260502042837 38 84 0.0 0.0 0.00 0.01 0.00 1 1015.4
20260502041840 37 84 0.0 0.0 0.00 0.01 0.00 1 1015.3
20260502040818 37 84 0.0 0.0 0.00 0.01 0.00 1 1015.4
20260502035754 38 84 0.0 0.0 0.00 0.01 0.01 1 1015.3
20260502034751 38 84 0.0 0.0 0.00 0.01 0.01 1 1015.2
20260502033722 39 84 0.0 0.0 0.00 0.01 0.01 1 1015.1
20260502031545 39 121 0.0 0.0 0.00 0.01 0.01 1 1015.1
20260502030545 39 122 0.0 0.0 0.00 0.01 0.01 1 1014.8
20260502025547 40 109 0.0 1.0 0.00 0.01 0.01 1 1014.8
20260502024538 40 111 0.0 4.0 0.00 0.01 0.01 1 1014.9
20260502023510 40 125 1.0 5.0 0.00 0.01 0.01 1 1014.8
20260502021355 41 100 3.0 7.0 0.00 0.01 0.01 1 1014.8
20260502020409 41 127 2.0 7.0 0.00 0.01 0.01 1 1014.6
20260502015427 41 98 2.0 7.0 0.00 0.01 0.01 1 1014.4
20260502012103 43 109 3.0 9.0 0.00 0.01 0.01 1 1013.6
20260502011101 44 107 1.0 5.0 0.00 0.01 0.01 1 1013.6
20260502004925 44 127 1.0 5.0 0.00 0.01 0.01 1 1013.2
20260502002825 44 124 2.0 7.0 0.00 0.01 0.01 1 1012.7
20260502001827 45 86 2.0 7.0 0.00 0.01 0.01 1 1012.4
20260501234533 46 101 6.0 16.0 0.00 0.00 0.00 21 1011.7
20260501233515 49 99 2.0 16.0 0.00 0.00 0.00 38 1011.5
20260501232533 50 55 1.0 4.0 0.00 0.00 0.00 42 1010.8
20260501231517 50 51 0.0 4.0 0.00 0.00 0.00 41 1010.7
20260501230500 50 91 1.0 8.0 0.00 0.00 0.00 42 1010.8
20260501225507 50 37 2.0 8.0 0.00 0.00 0.00 41 1010.9
20260501224514 50 65 2.0 7.0 0.00 0.00 0.00 41 1010.9
20260501223526 50 122 2.0 6.0 0.00 0.00 0.00 40 1011.0
20260501222541 49 44 0.0 7.0 0.00 0.00 0.00 36 1011.0
20260501221547 49 60 1.0 7.0 0.00 0.00 0.00 37 1011.0
20260501220535 49 41 1.0 5.0 0.00 0.00 0.00 34 1010.9
20260501214428 48 72 1.0 8.0 0.00 0.00 0.00 25 1010.9
20260501213405 48 54 1.0 7.0 0.00 0.00 0.00 30 1011.1
20260501212410 48 77 2.0 8.0 0.00 0.00 0.00 36 1011.3